www.pogodaiklimat.ru

Погода и климат >> Архив погоды >> Испания >> Авилес


ПОГОДА в Авилесе

  • Прогноз погоды в Авилесе
  • Монитор погоды в Авилесе

АРХИВ ПОГОДЫ в Авилесе

Время (UTC), дата Ветер
(напр.,м/с)
 
Видим.   Явления Облачность Т
(С)
Тd
(С)
f
(%)
Тe
(С)
Тes
(С)
Комфортность P
(гПа)
Po
(гПа)
Тmin
(С)
Tmax
(С)
R
(мм)
R24
(мм)
S
(см)
06 14.09 Ю 2 9000 м дымка 4/1 300 м
[Cu hum Ci fib]
+16.4 +15.6 95 +16 +16 1025.4 1010.0 +15.4
09 14.09 Ю 1 12 км 9/3 300 м
[St Ac trans Cs]
+19.6 +17.7 89 +24 +26 комфорт 1025.4 1010.1
12 14.09 С 3 15 км 1/0
[Ci fib]
+20.4 +17.5 83 +24 +35 комфорт 1024.6 1009.4
15 14.09 С 3 20 км 3/1 300 м
[St Ci fib]
+20.9 +18.1 84 +26 +31 душно 1023.0 1007.8
18 14.09 С 1 9000 м дымка 10/9 100 м
[Frnb]
+19.1 +18.1 94 +22 +22 комфорт 1023.1 1007.8 +21.9
21 14.09 штиль 0 5000 м дымка 3/3 100 м
[St]
+17.4 +17.2 99 +17 +17 1023.8 1008.4
00 15.09 Ю 2 5000 м дымка 4/4 <50 м
[St Ci fib]
+17.2 +16.6 96 +18 +18 1023.1 1007.7
03 15.09 штиль 0 н/о н/о +17.5 +17.0 97 +17 +17 1022.2 1006.8
06 15.09 ЮЗ 2 4200 м дымка 10/10 100 м
[St]
+17.5 +17.1 98 +18 +18 1022.2 1006.8 +16.7
09 15.09 З 1 9000 м дымка 9/8 100 м
[St As trans]
+19.7 +17.8 89 +23 +24 комфорт 1022.6 1007.4
12 15.09 С 2 10 км 5/3 100 м
[St As trans]
+20.5 +18.5 88 +25 +33 комфорт 1021.4 1006.2
15 15.09 СВ 2 н/о н/о +21.0 +19.1 89 +26 +26 душно 1020.2 1005.1
18 15.09 штиль 0 10 км 8/4 100 м
[St As trans Ci fib]
+20.1 +18.6 91 +23 +23 комфорт 1020.2 1005.0 +21.6
21 15.09 З 1 4000 м дымка 10/10 50 м
[St]
+18.6 +18.4 99 +21 +21 комфорт 1021.1 1005.8
00 16.09 штиль 0 7000 м дымка 5/5 100 м
[St As trans]
+18.1 +17.7 98 +18 +18 1021.0 1005.7
03 16.09 З 1 н/о н/о +18.0 +17.5 97 +19 +19 1020.1 1004.8
06 16.09 ЮЗ 1 7000 м дымка 6/0 1500 м
[Ac As]
+17.0 +16.5 97 +18 +18 1019.6 1004.3 +17.0
09 16.09 З 1 7000 м дымка 10/10 600 м
[St]
+19.0 +18.3 96 +22 +22 комфорт 1020.8 1005.6
12 16.09 СЗ 3 15 км 4/3 300 м
[Cu hum Ci fib]
+21.1 +18.3 84 +25 +32 комфорт 1019.9 1004.8
15 16.09 С 2 18 км 6/5 50 м
[Cu hum Ci fib]
+21.2 +19.3 89 +26 +29 душно 1019.3 1004.2
18 16.09 В 2 12 км 8/3 300 м
[Cu hum Ac trans Cs]
+19.8 +18.8 94 +24 +24 комфорт 1019.2 1004.0 +21.9
21 16.09 В 2 6000 м дымка 6/3 300 м
[Cu hum Ac trans Cs]
+18.2 +17.8 98 +19 +19 1019.7 1004.4
00 17.09 ЮВ 3 2500 м дымка 9/9 100 м
[St]
+18.1 +17.8 98 +18 +18 1019.3 1004.0
03 17.09 В 2 н/о н/о +18.3 +17.7 96 +20 +20 1018.3 1003.1
06 17.09 ЮВ 2 3500 м дымка 9/8 200 м
[St As trans Ci sp]
+17.5 +17.1 98 +18 +18 1018.2 1002.9 +17.5
09 17.09 ЮВ 2 8000 м 9/6 50 м
[St Ac trans Ci sp]
+20.9 +18.5 86 +26 +27 душно 1018.6 1003.5
12 17.09 СВ 3 15 км 6/3 200 м
[St Ac cast Cs]
+21.8 +19.3 86 +27 +32 душно 1018.0 1003.0
15 17.09 СВ 2 15 км 6/4 300 м
[Cu Sc Ac cast Cs]
+21.7 +19.3 86 +27 +27 душно 1017.2 1002.2
18 17.09 штиль 0 12 км 8/6 200 м
[Cu Sc Ac und Cs]
+19.9 +18.9 94 +23 +23 комфорт 1017.4 1002.3 +23.8
21 17.09 ЮВ 3 3500 м дымка {ливн. осадки, дождь} 10/6 100 м
[Frnb Ac As]
+18.9 +18.6 98 +21 +21 комфорт 1017.8 1002.6 0.2
00 18.09 Ю 3 8000 м дымка 10/10 200 м
[St]
+18.0 +17.7 98 +18 +18 1017.4 1002.2
03 18.09 ЮЗ 3 н/о н/о +16.6 +16.4 99 +16 +16 1016.3 1001.0
06 18.09 ЮЗ 2 10 км 10/10 100 м
[Sc]
+17.2 +16.7 97 +18 +18 1016.9 1001.6 +16.3
09 18.09 Ю 5 10 км слаб. дождь 10/5 600 м
[Frnb Ac und]
+17.8 +16.7 93 +17 +18 1018.5 1003.2
12 18.09 В 4 10 км 5/3 100 м
[St As trans Ci fib]
+21.9 +19.2 85 +27 +32 душно 1018.3 1003.3 0.0
15 18.09 В 5 10 км 10/6 200 м
[Cu Sc Ac As]
+20.8 +18.0 84 +25 +25 комфорт 1018.1 1003.0
18 18.09 В 3 10 км 10/8 200 м
[Sc diur, vesp Ac As]
+19.3 +17.3 88 +21 +21 комфорт 1018.7 1003.5 +22.8
21 18.09 В 3 10 км 10/10 100 м
[Cu Sc]
+18.4 +16.7 90 +19 +19 1019.8 1004.5
00 19.09 В 4 8000 м дымка 10/10 100 м
[Cu Sc]
+17.3 +16.7 96 +17 +17 1019.8 1004.5
03 19.09 ЮВ 2 н/о н/о +15.8 +15.3 97 +16 +16 1019.1 1003.7
06 19.09 ЮВ 3 6000 м дымка 1/0
[Ci fib]
+14.9 +14.6 98 +14 +14 1018.9 1003.5 +14.9
09 19.09 ЮВ 4 12 км 1/1 600 м
[Cu hum]
+20.7 +17.0 79 +24 +27 комфорт 1019.4 1004.3
12 19.09 В 5 20 км 1/1 600 м
[Cu hum]
+22.3 +17.0 72 +27 +32 душно 1018.5 1003.5
15 19.09 В 6 20 км 1/1 600 м
[Cu hum]
+21.4 +16.1 72 +25 +28 комфорт 1017.2 1002.1
18 19.09 В 6 15 км 1/1 600 м
[Cu hum Ci fib]
+18.5 +15.4 82 +19 +19 1016.8 1001.6 +22.6
21 19.09 ЮВ 3 15 км 1/1 600 м
[Cu hum Ci fib]
+15.8 +14.8 94 +15 +15 1017.5 1002.1
00 20.09 ЮВ 4 15 км ясно +15.6 +15.0 96 +15 +15 1015.8 1000.4
03 20.09 ЮЗ 3 н/о н/о +16.0 +15.4 96 +16 +16 1014.1 998.8
09 20.09 ЮЗ 3 15 км дымка 3/0
[]
+19.4 +16.6 84 +22 +25 комфорт 1012.8 997.7
12 20.09 СЗ 3 н/о н/о +18.4 +16.2 87 +19 +19 1011.9 996.7
15 20.09 СЗ 4 300 м туман ?/? +15.8 +15.6 99 +15 +15 1010.7 995.4
18 20.09 СЗ 5 200 м туман ?/? +15.5 +15.3 99 +14 +14 1010.9 995.6 +20.3
21 20.09 З 4 9000 м дымка {туман} 10/10 100 м
[Cu Sc]
+16.7 +16.3 97 +16 +16 1011.0 995.8 0.0
00 21.09 ЮЗ 2 9000 м ясно +15.8 +15.5 98 +16 +16 1009.7 994.4
03 21.09 Ю 3 н/о н/о +16.0 +15.8 99 +16 +16 1008.6 993.4

 

Местоположение метеостанции Авилес (Испания): широта 43.55 долгота -6.03 высота над уровнем моря 127 м.

В архиве по умолчанию представлена погода в Авилесе за последнюю неделю. Архивные данные за месяц целиком и за предыдущие месяцы, начиная с января 2011 года, Вы можете получить, выбрав интересующий диапазон дат из раскрывающегося списка и нажав кнопку "Ввод!".


*Определитесь, кто Вы:
робот инопланетянин человек

Внимание! Время в таблицах - всемирное. Для получения местного времени необходимо прибавить поправку, которая равна 1 ч.

Смотрите также архив погоды в соседних городах и на ближайших метеорологических станциях:

Погода на Кабо Пеньяс (Испания) (19 км)
Погода в Овьедо (Испания) (26 км)
Погода в Хихоне (Испания) (27 км)
Погода на Кабо Бусто (Испания) (36 км)
Погода в Вальгранде-Пахаресе (Испания) (67 км)
Погода в Пуэрто-де-Лейтарьегосе (Испания) (69 км)
Погода в Пуэрто-де-Сан-Исидро (Испания) (76 км)
Погода в Кастрополе (Испания) (80 км)
Погода в Льянесе (Испания) (104 км)
Погода в Леоне (Испания) (112 км)

Пояснения к столбцам:

Ветер - указаны скорость ветра в м/с - средняя за 10 мин, порывы в срок и между сроками (в фигурных скобках) и направление, откуда дует ветер: С - северный, СВ - северо-восточный, В - восточный, ЮВ - юго-восточный, Ю - южный, ЮЗ - юго-западный, З - западный, СЗ - северо-западный.
Видимость - горизонтальная дальность видимости в метрах или километрах. При видимости от 1 до 10 км при отсутствии осадков обычно наблюдается дымка, при ухудшении видимости до 1 км и менее - туман. В сухую погоду видимость может ухудшаться дымом, пылью или мглою.
Явления - указаны атмосферные явления, наблюдавшиеся в срок или в последний час перед сроком; фигурными скобками обозначены явления, наблюдавшиеся между сроками (за 1-3 часа до срока); квадратными скобками обозначены град или гололедные отложения с указанием их диаметра в мм.
Облачность - указаны через наклонную черту общая и нижняя облачность в баллах и высота нижней границы облаков в метрах; квадратными скобками обозначены формы облаков: Ci - перистые, Cs - перисто-слоистые, Cc - перисто-кучевые, Ac - высококучевые, As - высокослоистые, Sc - слоисто-кучевые, Ns - слоисто-дождевые, Cu - кучевые, Cb - кучево-дождевые. Подробнее классификацию облаков см. в Атласе облаков (PDF).
T - Температура воздуха - температура, измеренная на высоте 2 м над землей.
Td - Температура точки росы - температура, при понижении до которой содержащийся в воздухе водяной пар достигнет насыщения.
f - Относительная влажность воздуха - влажноcть воздуха, измеренная на высоте 2 м над землей.
Te - Эффективная температура - температура, которую ощущает одетый по сезону человек в тени. Характеристика душности погоды. При расчете учитывается влияние влажности воздуха и скорости ветра на теплоощущения человека.
Tes - Эффективная температура на солнце - температура, которую ощущает человек, с поправкой на солнечный нагрев. Характеристика знойности погоды. Зависит от высоты солнца над горизонтом, облачности и скорости ветра. Ночью, в пасмурную погоду, а также при ветре 12 м/с и более поправка равна нулю.
P - Атмосферное давление - приведенное к уровню моря атмосферное давление.
Po - Атмосферное давление - измеренное на уровне метеостанции атмосферное давление.
Tmin - Минимальная температура - минимум температуры воздуха на высоте 2 м над землей.
Tmax - Максимальная температура - максимум температуры воздуха на высоте 2 м над землей.
R - Количество осадков - Количество выпавших осадков за период времени, мм. При наведении курсора мыши на число - период времени, за который выпало указанное количество осадков.
R24 - Количество осадков - Количество выпавших осадков за 24 часа, мм.
S - Снежный покров - Высота снежного покрова, см. При наведении курсора мыши на число - состояние снежного покрова и степень покрытия местности в баллах.